Погода в Красноуральске

Россия / Оренбургская область     51°25′09″N   58°48′25″E
В апреле 2022 года жителям России запретили посещать сайт meteo.paraplan.net по решению Генеральной прокуратуры. Аудитория сайта уменьшилась в 10 раз. Владельцы сайта не видят смысла в поддержке погодного сервера в таких условиях. Сайт будет закрыт в октябре.
темп.,
°C
ветер,
м/с
пор.,
м/с
влажн.,
%
обл.,
%
осадки,
мм/ч
давл.,
гПа
погр.,
м
4 октября, вт
вт423:00+7вюв33405 0.0 103138
02:00+5юв23425 0.0 103226
05:00+3юв22440 0.0 103311
08:00+4юв22432 0.0 103416
11:00+9вюв45300 0.0 1034492
14:00+12вюв45230 0.0 1034977
17:00+13вюв4523100 0.0 1033496
20:00+8вюв4533100 0.0 103453
5 октября, ср
ср523:00+7вюв3537100 0.0 103565
02:00+6юв3339100 0.0 103549
05:00+4ююв224289 0.0 103614
08:00+4ююв3543100 0.0 103688
11:00+9ююв462898 0.0 1035415
14:00+14ю5720100 0.0 1033803
17:00+14ююв3624100 0.0 1032170
20:00+11ююв3327100 0.0 103245
6 октября, чт
чт623:00+11ююв3928100 0.0 1031190
02:00+9ююв3629100 0.0 103099
05:00+8ююв4730100 0.0 1029124
08:00+8ююв4931100 0.0 1028165
11:00+12ю61223100 0.0 1026523
14:00+17ююз71118100 0.0 10241044
17:00+17ююз51020100 0.0 1022300
20:00+13ю4525100 0.0 102266
7 октября, пт
пт723:00+11зюз61358100 0.6 1023503
02:00+10ююз2478100 0.6 1022180
05:00+10ююв5867100 0.7 1020277
08:00+10ю6106578 0.0 1019444
11:00+12юз475098 0.0 1018706
14:00+13з6753100 0.1 10171826
17:00+11з585392 0.1 1017781
20:00+9зсз486723 0.1 1019254
8 октября, сб
сб823:00+7зсз59665 0.1 1020286
02:00+6з48676 0.0 1021157
05:00+7зюз51162100 0.0 1020456
08:00+8з71363100 0.0 1020486
11:00+10з7126899 0.0 1021991
14:00+14сз9124139 0.0 10212050
17:00+14сз711463 0.0 10221691
20:00+9сз49630 0.0 1026262